Weather History for Centralia, IL

Change the Weather History Date:

Wednesday, May 22, 2013

  Actual Average (KSLO) Record (KSLO)
Temperature  
Mean Temperature 72 °F -  
Max Temperature 79 °F 77 °F 93 °F (1975)
Min Temperature 65 °F 56 °F 39 °F (1963)
Cooling Degree Days 7    
Growing Degree Days 22 (Base 50)    
Moisture  
Dew Point 62 °F    
Average Humidity 73    
Maximum Humidity 89    
Minimum Humidity 52    
Precipitation  
Precipitation 0.08 in - - ()
Sea Level Pressure  
Sea Level Pressure 29.77 in    
Wind  
Wind Speed 11 mph (SW)    
Max Wind Speed 16 mph    
Max Gust Speed 23 mph    
Visibility 10 miles    
Events Rain    
Averages and records for this station are not official NWS values.
T = Trace of Precipitation, MM = Missing Value Source: NWS Daily Summary

Daily Weather History Graph

Daily Weather History Graph

Search for Another Location

Airport:

Trip Planner

Search our weather history database for the weather conditions in past years. The results will help you decide how hot, cold, wet, or windy it might be!

Date:

Astronomy

May. 22, 2013 Rise Set
Actual Time 5:39 AM CDT 8:07 PM CDT
Civil Twilight 5:08 AM CDT 8:37 PM CDT
Nautical Twilight 4:31 AM CDT 9:15 PM CDT
Astronomical Twilight 3:49 AM CDT 9:57 PM CDT
Moon 5:31 PM CDT (5/22) 3:41 AM CDT (5/22)
Length of Visible Light 15h 29m
Length of Day
14h 28m
Waxing Gibbous, 91% of the Moon is Illuminated
May 22
Waxing Gibbous
May 24
Full
May 31
Last Quarter
Jun 8
New
Jun 16
First Quarter

Hourly Weather History & Observations

Time (CDT) Temp. Dew Point Humidity Pressure Visibility Wind Dir Wind Speed Gust Speed Precip Events Conditions
12:15 AM 68.7 °F 65.3 °F 89% 29.75 in 10.0 mi SSE 8.1 mph - N/A   Clear
12:35 AM 68.9 °F 65.3 °F 88% 29.74 in 10.0 mi SSE 11.5 mph - N/A   Clear
12:55 AM 68.9 °F 65.3 °F 88% 29.74 in 10.0 mi SSE 13.8 mph 18.4 mph N/A   Clear
1:15 AM 68.7 °F 65.3 °F 89% 29.74 in 10.0 mi South 12.7 mph 17.3 mph N/A   Scattered Clouds
1:35 AM 68.4 °F 64.8 °F 88% 29.75 in 10.0 mi South 12.7 mph 18.4 mph N/A   Scattered Clouds
1:55 AM 68.5 °F 64.9 °F 88% 29.75 in 10.0 mi SSW 10.4 mph - N/A   Mostly Cloudy
2:15 AM 68.5 °F 64.9 °F 88% 29.75 in 10.0 mi SSW 15.0 mph 18.4 mph N/A   Overcast
2:35 AM 68.2 °F 64.4 °F 88% 29.74 in 10.0 mi SW 13.8 mph 20.7 mph N/A   Mostly Cloudy
2:55 AM 68.2 °F 63.7 °F 85% 29.73 in 10.0 mi SSW 9.2 mph - N/A   Mostly Cloudy
3:15 AM 68.2 °F 63.5 °F 85% 29.73 in 10.0 mi SSW 13.8 mph 20.7 mph N/A   Mostly Cloudy
3:35 AM 68.4 °F 62.8 °F 82% 29.73 in 10.0 mi South 11.5 mph 18.4 mph N/A   Overcast
3:55 AM 67.8 °F 63.1 °F 85% 29.73 in 10.0 mi South 10.4 mph - N/A   Overcast
4:15 AM 68.0 °F 63.0 °F 84% 29.73 in 10.0 mi South 8.1 mph - N/A   Overcast
4:35 AM 67.5 °F 63.3 °F 87% 29.73 in 10.0 mi South 10.4 mph - N/A   Overcast
4:55 AM 67.3 °F 63.5 °F 88% 29.73 in 10.0 mi SSE 8.1 mph - N/A   Mostly Cloudy
5:15 AM 66.7 °F 63.1 °F 88% 29.72 in 10.0 mi SSE 6.9 mph - N/A   Scattered Clouds
5:35 AM 66.6 °F 63.0 °F 88% 29.70 in 10.0 mi SSE 8.1 mph - N/A   Scattered Clouds
5:55 AM 66.2 °F 62.8 °F 89% 29.72 in 10.0 mi South 11.5 mph - N/A   Scattered Clouds
6:15 AM 66.6 °F 62.8 °F 88% 29.72 in 10.0 mi South 10.4 mph - N/A   Clear
6:35 AM 67.3 °F 63.0 °F 86% 29.73 in 10.0 mi South 15.0 mph 18.4 mph N/A   Clear
6:55 AM 68.0 °F 62.8 °F 83% 29.74 in 10.0 mi SSW 13.8 mph 17.3 mph N/A   Scattered Clouds
7:15 AM 67.6 °F 62.6 °F 84% 29.74 in 10.0 mi SSW 13.8 mph 21.9 mph N/A   Scattered Clouds
7:35 AM 67.1 °F 62.6 °F 85% 29.74 in 10.0 mi SSW 12.7 mph - N/A   Mostly Cloudy
7:55 AM 68.2 °F 62.6 °F 82% 29.75 in 10.0 mi SSW 16.1 mph - N/A   Scattered Clouds
8:15 AM 68.0 °F 62.6 °F 83% 29.75 in 10.0 mi SW 10.4 mph 18.4 mph N/A   Overcast
8:35 AM 68.4 °F 62.6 °F 82% 29.75 in 10.0 mi SSW 12.7 mph 18.4 mph N/A   Overcast
8:55 AM 69.8 °F 63.1 °F 79% 29.76 in 10.0 mi SSW 11.5 mph - N/A   Overcast
9:15 AM 70.7 °F 63.5 °F 78% 29.76 in 10.0 mi SSW 11.5 mph 17.3 mph N/A   Mostly Cloudy
9:35 AM 71.1 °F 63.3 °F 76% 29.77 in 10.0 mi SW 11.5 mph 19.6 mph N/A   Mostly Cloudy
9:55 AM 72.7 °F 63.9 °F 74% 29.76 in 10.0 mi SSW 12.7 mph - N/A   Mostly Cloudy
10:15 AM 73.0 °F 63.7 °F 72% 29.77 in 10.0 mi SW 11.5 mph - N/A   Mostly Cloudy
10:35 AM 71.6 °F 63.1 °F 75% 29.78 in 10.0 mi SW 13.8 mph 18.4 mph N/A   Mostly Cloudy
10:55 AM 73.0 °F 63.1 °F 71% 29.78 in 10.0 mi SW 12.7 mph - N/A   Mostly Cloudy
11:15 AM 74.3 °F 63.5 °F 69% 29.78 in 10.0 mi SSW 11.5 mph - N/A   Scattered Clouds
11:35 AM 75.9 °F 64.6 °F 68% 29.79 in 10.0 mi SW 10.4 mph - N/A   Scattered Clouds
11:55 AM 75.7 °F 62.6 °F 64% 29.79 in 10.0 mi SSW 9.2 mph 18.4 mph N/A   Scattered Clouds
12:15 PM 75.9 °F 61.0 °F 60% 29.79 in 10.0 mi SSW 11.5 mph - N/A   Scattered Clouds
12:35 PM 75.6 °F 59.7 °F 58% 29.79 in 10.0 mi WSW 11.5 mph - N/A   Scattered Clouds
12:55 PM 77.0 °F 60.8 °F 57% 29.79 in 10.0 mi SW 10.4 mph 19.6 mph N/A   Scattered Clouds
1:15 PM 78.3 °F 61.2 °F 56% 29.79 in 10.0 mi SW 9.2 mph - N/A   Scattered Clouds
1:35 PM 78.3 °F 59.9 °F 53% 29.78 in 10.0 mi SSW 8.1 mph 17.3 mph N/A   Clear
1:55 PM 77.5 °F 59.5 °F 54% 29.78 in 10.0 mi SW 9.2 mph - N/A   Scattered Clouds
2:15 PM 77.7 °F 61.0 °F 56% 29.78 in 10.0 mi SSW 10.4 mph - N/A   Clear
2:35 PM 76.6 °F 61.9 °F 60% 29.78 in 10.0 mi SW 8.1 mph - N/A   Scattered Clouds
2:55 PM 77.0 °F 60.6 °F 57% 29.78 in 10.0 mi SSW 10.4 mph 16.1 mph N/A   Clear
3:15 PM 75.2 °F 60.8 °F 61% 29.78 in 10.0 mi South 10.4 mph - N/A   Mostly Cloudy
3:35 PM 70.3 °F 62.2 °F 75% 29.79 in 4.0 mi SSW 11.5 mph 23.0 mph 0.05 in Rain Heavy Rain
3:55 PM 73.2 °F 66.0 °F 78% 29.78 in 10.0 mi South 6.9 mph - 0.08 in   Mostly Cloudy
4:15 PM 73.9 °F 66.0 °F 76% 29.77 in 10.0 mi SSW 5.8 mph - N/A   Scattered Clouds
4:35 PM 75.9 °F 65.7 °F 70% 29.77 in 10.0 mi SSW 10.4 mph - N/A   Scattered Clouds
4:55 PM 74.7 °F 64.2 °F 70% 29.76 in 10.0 mi SSW 9.2 mph - N/A   Scattered Clouds
5:15 PM 76.5 °F 63.9 °F 65% 29.76 in 10.0 mi SSW 6.9 mph - N/A   Scattered Clouds
5:35 PM 77.4 °F 61.7 °F 58% 29.76 in 10.0 mi SW 9.2 mph - N/A   Clear
5:55 PM 77.9 °F 59.0 °F 52% 29.76 in 10.0 mi WSW 11.5 mph - N/A   Scattered Clouds
6:15 PM 77.2 °F 58.8 °F 53% 29.76 in 10.0 mi West 12.7 mph 18.4 mph N/A   Scattered Clouds
6:35 PM 77.9 °F 59.7 °F 53% 29.76 in 10.0 mi WSW 11.5 mph 16.1 mph N/A   Mostly Cloudy
6:55 PM 76.1 °F 58.5 °F 54% 29.77 in 10.0 mi West 12.7 mph 18.4 mph N/A   Scattered Clouds
7:15 PM 75.2 °F 58.1 °F 55% 29.78 in 10.0 mi West 10.4 mph 16.1 mph N/A   Scattered Clouds
7:35 PM 74.7 °F 58.3 °F 57% 29.78 in 10.0 mi West 10.4 mph - N/A   Mostly Cloudy
7:55 PM 73.9 °F 58.8 °F 59% 29.79 in 10.0 mi West 9.2 mph - N/A   Overcast
8:15 PM 73.8 °F 58.6 °F 59% 29.80 in 10.0 mi West 10.4 mph - N/A   Overcast
8:35 PM 73.2 °F 57.9 °F 59% 29.80 in 10.0 mi West 10.4 mph - N/A   Overcast
8:55 PM 72.5 °F 57.9 °F 60% 29.81 in 10.0 mi West 8.1 mph - N/A   Overcast
9:15 PM 72.0 °F 58.1 °F 62% 29.82 in 10.0 mi WNW 8.1 mph - N/A   Overcast
9:35 PM 70.2 °F 58.8 °F 67% 29.83 in 10.0 mi WNW 5.8 mph - N/A   Scattered Clouds
9:55 PM 70.0 °F 58.8 °F 68% 29.84 in 10.0 mi WNW 5.8 mph - N/A   Mostly Cloudy
10:15 PM 69.3 °F 58.8 °F 69% 29.85 in 10.0 mi WNW 6.9 mph - N/A   Scattered Clouds
10:35 PM 68.4 °F 58.5 °F 71% 29.85 in 10.0 mi WNW 5.8 mph - N/A   Scattered Clouds
10:55 PM 67.8 °F 58.5 °F 72% 29.85 in 10.0 mi WNW 8.1 mph - N/A   Clear
11:15 PM 67.3 °F 58.5 °F 73% 29.87 in 10.0 mi WNW 5.8 mph - N/A   Scattered Clouds
11:35 PM 66.4 °F 58.6 °F 76% 29.87 in 10.0 mi WNW 5.8 mph - N/A   Scattered Clouds
11:55 PM 65.7 °F 58.6 °F 78% 29.87 in 10.0 mi WNW 6.9 mph - N/A   Clear